Flag for Faroe Islands Weather past 2 weeks in Tórshavn, Faroe Islands, Faroe Islands

Now
52 °F

Passing clouds.


Feels Like: 47 °F
Forecast: 46 / 52 °F
Wind: 16 mph from Northwest

Location: Soervaag / Vagar

Current Time: Sep 20, 2014 at 5:28:54 AM

Latest Report: Sep 20, 2014 at 4:50 AM


Visibility: N/A

Pressure: 29.92 "Hg

Humidity: 94%

Dew point: 50 °F

Location of TórshavnLocation

Historic Weather in Tórshavn — Graph

°F

Tórshavn temperature yesterday

Maximum temperature yesterday: 52 °F (at 11:50 AM)
Minimum temperature yesterday: 48 °F (at 4:20 AM)
Average temperature yesterday: 51 °F

Past Weeks' High & Low Weather Summary

 TemperatureHumidityPressure
High57 °F (Sep 13, 12:50 PM)100% (Sep 5, 7:20 AM)30.45 "Hg (Sep 5, 7:20 AM)
Low43 °F (Sep 11, 11:20 PM)77% (Sep 6, 2:50 PM)29.86 "Hg (Sep 5, 4:20 AM)
Average52 °F94%30.11 "Hg
* Reported Sep 5 4:20 AM — Sep 20 4:20 AM, Tórshavn, Weather by CustomWeather, © 2014

Note: Actual official high and low records may vary slightly from our data, if they occured in-between our weather recording intervals... More about our weather records

Advertising

Tórshavn weather history for previous 24 hours

 ConditionsComfort  
Time TempWeatherWind HumidityBarometerVisibility
4:20 AM
Sep 20
52 °FPassing clouds.17 mph94%29.92 "HgN/A
3:50 AM50 °FSprinkles. Passing clouds.12 mph100%29.92 "HgN/A
3:20 AM52 °FPassing clouds.9 mph100%29.92 "HgN/A
2:50 AM52 °FSprinkles. Passing clouds.9 mph94%29.92 "HgN/A
2:20 AM50 °FSprinkles. Passing clouds.5 mph100%29.89 "HgN/A
1:50 AM50 °FPassing clouds.5 mph100%29.89 "HgN/A
1:20 AM50 °FPartly cloudy.9 mph100%29.89 "HgN/A
12:50 AM50 °FPassing clouds.8 mph100%29.89 "HgN/A
12:20 AM50 °FPassing clouds.13 mph100%29.89 "HgN/A
11:50 PM
Sep 19
50 °FSprinkles. Partly cloudy.12 mph100%29.89 "HgN/A
11:20 PM52 °FDrizzle. Low clouds.10 mph100%29.89 "HgN/A
10:50 PM52 °FRain. Passing clouds.9 mph100%29.89 "Hg5 mi
10:20 PM52 °FRain showers. Passing clouds.9 mph100%29.89 "Hg4 mi
9:50 PM52 °FLight rain. Low clouds.5 mph100%29.92 "HgN/A
9:20 PM52 °FPartly sunny.2 mph100%29.92 "Hg3 mi
8:50 PM52 °FFog.5 mph100%29.92 "Hg1 mi
8:20 PM52 °FDrizzle. Partly sunny.6 mph100%29.92 "Hg4 mi
7:50 PM52 °FLight rain. Partly sunny.5 mph100%29.92 "HgN/A
7:20 PM52 °FLight rain. Partly sunny.8 mph100%29.92 "HgN/A
6:50 PM52 °FPartly sunny.9 mph100%29.92 "HgN/A
6:20 PM52 °FPartly sunny.7 mph100%29.92 "HgN/A
5:50 PM52 °FSprinkles. Partly sunny.7 mph100%29.92 "HgN/A
5:20 PM52 °FSprinkles. Fog.5 mph100%29.92 "Hg1 mi
4:50 PM52 °FDrizzle. Fog.5 mph100%29.92 "Hg0 mi
4:20 PM52 °FFog.6 mph100%29.92 "Hg0 mi
3:50 PM52 °FFog.6 mph100%29.92 "Hg0 mi
3:20 PM52 °FFog.5 mph100%29.95 "Hg0 mi
2:50 PM52 °FFog.5 mph100%29.95 "Hg0 mi
2:20 PM52 °FFog.5 mph100%29.95 "Hg1 mi
1:50 PM52 °FPartly sunny.7 mph100%29.95 "Hg5 mi
1:20 PM52 °FLow clouds.8 mph100%29.95 "Hg4 mi
12:50 PM50 °FFog.7 mph100%29.95 "Hg1 mi
12:20 PM50 °FFog.8 mph100%29.95 "Hg1 mi
11:50 AM52 °FFog.7 mph100%29.95 "Hg1 mi
11:20 AM50 °FLow clouds.6 mph100%29.95 "HgN/A
10:50 AM50 °FLow clouds.5 mph100%29.95 "HgN/A
10:20 AM50 °FDrizzle. Broken clouds.2 mph100%29.95 "Hg3 mi
9:50 AM50 °FFog.3 mph100%29.95 "Hg1 mi
9:20 AM50 °FFog.No wind100%29.98 "Hg1 mi
8:50 AM50 °FFog.2 mph100%29.98 "Hg1 mi
8:20 AM50 °FFog.2 mph100%29.95 "Hg1 mi
7:50 AM50 °FFog.2 mph100%29.95 "Hg2 mi
7:20 AM50 °FFog.1 mph100%29.95 "Hg1 mi
6:50 AM48 °FFog.2 mph100%29.95 "Hg0 mi
6:20 AM48 °FFog.2 mph100%29.95 "Hg0 mi
5:50 AM48 °FDense fog.1 mph100%29.95 "Hg0 mi
5:20 AM48 °FFog.No wind100%29.95 "Hg1 mi
Weather by CustomWeather, © 2014

See weather overviewHow to use our weather pages